When you browse on this site, cookies collect data to enhance your experience and personalize the content and advertising you see.
Visit our Privacy Policy to learn more. By continuing to use the site, you agree to this use of cookies and data.
  • In Deutschland
  • Länderverzeichnis
  • Für 7 Tage
  • Wassertemperatur
  • Satellitenkarten
  • Wetterkarte
  • Widgets
  • user-avatar
    Anmelden

    Stündliche Wetter Townsville

    Heute, 23 Juli, Dienstag

    Zeit Temperatur Niederschläge Wind Luftdruck Luftfeuchtigkeit
    00:00 +18°C° 0 mm 4 m/S 756 mmHg 91%
    01:00 +18°C° 0 mm 4 m/S 756 mmHg 91%
    02:00 +18°C° 0 mm 4 m/S 756 mmHg 91%
    03:00 +18°C° 0 mm 4 m/S 756 mmHg 91%
    04:00 +18°C° 0 mm 3 m/S 755 mmHg 92%
    05:00 +18°C° 0 mm 3 m/S 756 mmHg 92%
    06:00 +18°C° 0 mm 3 m/S 756 mmHg 91%
    07:00 +18°C° 0 mm 3 m/S 757 mmHg 90%
    08:00 +19°C° 0 mm 3 m/S 757 mmHg 84%
    09:00 +21°C° 0 mm 3 m/S 757 mmHg 78%
    10:00 +22°C° 0 mm 3 m/S 757 mmHg 72%
    11:00 +23°C° 0 mm 4 m/S 757 mmHg 69%
    12:00 +23°C° 0 mm 4 m/S 757 mmHg 66%
    13:00 +25°C° 0 mm 4 m/S 756 mmHg 63%
    14:00 +25°C° 0 mm 4 m/S 756 mmHg 65%
    15:00 +23°C° 0 mm 4 m/S 756 mmHg 67%
    16:00 +23°C° 0 mm 4 m/S 756 mmHg 69%
    17:00 +22°C° 0 mm 4 m/S 756 mmHg 72%
    18:00 +21°C° 0 mm 3 m/S 756 mmHg 76%
    19:00 +20°C° 0 mm 3 m/S 757 mmHg 79%
    20:00 +20°C° 0 mm 3 m/S 757 mmHg 80%
    21:00 +20°C° 0 mm 3 m/S 758 mmHg 81%
    22:00 +19°C° 0 mm 3 m/S 758 mmHg 83%
    23:00 +19°C° 0 mm 3 m/S 758 mmHg 83%

    Morgen, 24 Juli, Mittwoch

    Zeit Temperatur Niederschläge Wind Luftdruck Luftfeuchtigkeit
    00:00 +19°C° 0 mm 3 m/S 758 mmHg 83%
    01:00 +19°C° 0 mm 3 m/S 758 mmHg 84%
    02:00 +18°C° 0 mm 3 m/S 758 mmHg 85%
    03:00 +17°C° 0 mm 3 m/S 758 mmHg 87%
    04:00 +17°C° 0 mm 3 m/S 757 mmHg 89%
    05:00 +16°C° 0 mm 3 m/S 758 mmHg 89%
    06:00 +16°C° 0 mm 3 m/S 758 mmHg 89%
    07:00 +14°C° 0 mm 3 m/S 759 mmHg 89%
    08:00 +18°C° 0 mm 3 m/S 759 mmHg 76%
    09:00 +20°C° 0 mm 3 m/S 759 mmHg 62%
    10:00 +24°C° 0 mm 3 m/S 759 mmHg 48%
    11:00 +25°C° 0 mm 4 m/S 759 mmHg 45%
    12:00 +26°C° 0 mm 5 m/S 758 mmHg 41%
    13:00 +27°C° 0 mm 5 m/S 757 mmHg 38%
    14:00 +26°C° 0 mm 6 m/S 757 mmHg 41%
    15:00 +26°C° 0 mm 6 m/S 757 mmHg 43%
    16:00 +24°C° 0 mm 6 m/S 757 mmHg 45%
    17:00 +22°C° 0 mm 6 m/S 757 mmHg 53%
    18:00 +21°C° 0 mm 5 m/S 757 mmHg 60%
    19:00 +19°C° 0 mm 5 m/S 758 mmHg 68%
    20:00 +18°C° 0 mm 4 m/S 758 mmHg 70%
    21:00 +17°C° 0 mm 4 m/S 758 mmHg 72%
    22:00 +15°C° 0 mm 4 m/S 759 mmHg 74%
    23:00 +15°C° 0 mm 4 m/S 758 mmHg 74%

    übermorgen, 25 Juli, Donnerstag

    Zeit Temperatur Niederschläge Wind Luftdruck Luftfeuchtigkeit
    00:00 +14°C° 0 mm 4 m/S 758 mmHg 74%
    01:00 +14°C° 0 mm 4 m/S 758 mmHg 75%
    02:00 +14°C° 0 mm 3 m/S 758 mmHg 75%
    03:00 +14°C° 0 mm 3 m/S 757 mmHg 75%
    04:00 +13°C° 0 mm 3 m/S 757 mmHg 75%
    05:00 +13°C° 0 mm 3 m/S 758 mmHg 77%
    06:00 +13°C° 0 mm 4 m/S 758 mmHg 79%
    07:00 +13°C° 0 mm 4 m/S 759 mmHg 80%
    08:00 +17°C° 0 mm 4 m/S 759 mmHg 71%
    09:00 +19°C° 0 mm 4 m/S 759 mmHg 61%
    10:00 +22°C° 0 mm 5 m/S 759 mmHg 52%
    11:00 +23°C° 0 mm 5 m/S 759 mmHg 49%
    12:00 +24°C° 0 mm 6 m/S 758 mmHg 47%
    13:00 +26°C° 0 mm 6 m/S 757 mmHg 44%
    14:00 +24°C° 0 mm 6 m/S 757 mmHg 46%
    15:00 +24°C° 0 mm 6 m/S 757 mmHg 47%
    16:00 +24°C° 0 mm 6 m/S 756 mmHg 48%
    17:00 +22°C° 0 mm 5 m/S 757 mmHg 57%
    18:00 +20°C° 0 mm 5 m/S 757 mmHg 65%
    19:00 +18°C° 0 mm 4 m/S 758 mmHg 74%
    20:00 +17°C° 0 mm 4 m/S 758 mmHg 77%
    21:00 +17°C° 0 mm 4 m/S 758 mmHg 80%
    22:00 +15°C° 0 mm 4 m/S 759 mmHg 83%
    23:00 +14°C° 0 mm 4 m/S 758 mmHg 84%

    26 Juli, Freitag

    Zeit Temperatur Niederschläge Wind Luftdruck Luftfeuchtigkeit
    00:00 +14°C° 0 mm 4 m/S 758 mmHg 86%
    01:00 +14°C° 0 mm 3 m/S 758 mmHg 87%
    02:00 +14°C° 0 mm 3 m/S 758 mmHg 87%
    03:00 +13°C° 0 mm 3 m/S 757 mmHg 87%
    04:00 +13°C° 0 mm 3 m/S 757 mmHg 87%
    05:00 +13°C° 0 mm 3 m/S 757 mmHg 88%
    06:00 +13°C° 0 mm 3 m/S 758 mmHg 89%
    07:00 +13°C° 0 mm 3 m/S 758 mmHg 89%
    08:00 +16°C° 0 mm 3 m/S 758 mmHg 80%
    09:00 +19°C° 0 mm 3 m/S 758 mmHg 71%
    10:00 +21°C° 0 mm 3 m/S 758 mmHg 61%
    11:00 +22°C° 0 mm 4 m/S 758 mmHg 57%
    12:00 +23°C° 0 mm 4 m/S 757 mmHg 52%
    13:00 +25°C° 0 mm 5 m/S 756 mmHg 47%
    14:00 +25°C° 0 mm 5 m/S 756 mmHg 50%
    15:00 +25°C° 0 mm 5 m/S 756 mmHg 53%
    16:00 +23°C° 0 mm 5 m/S 756 mmHg 56%
    17:00 +21°C° 0 mm 5 m/S 756 mmHg 65%
    18:00 +20°C° 0 mm 4 m/S 756 mmHg 74%
    19:00 +18°C° 0 mm 4 m/S 757 mmHg 83%
    20:00 +17°C° 0 mm 4 m/S 757 mmHg 85%
    21:00 +17°C° 0 mm 3 m/S 757 mmHg 87%
    22:00 +17°C° 0 mm 3 m/S 758 mmHg 88%
    23:00 +16°C° 0 mm 3 m/S 757 mmHg 89%

    27 Juli, Samstag

    Zeit Temperatur Niederschläge Wind Luftdruck Luftfeuchtigkeit
    00:00 +16°C° 0 mm 3 m/S 757 mmHg 89%
    01:00 +16°C° 0 mm 3 m/S 757 mmHg 89%
    02:00 +16°C° 0 mm 3 m/S 757 mmHg 90%
    03:00 +14°C° 0 mm 3 m/S 757 mmHg 91%
    04:00 +14°C° 0 mm 3 m/S 757 mmHg 92%
    05:00 +14°C° 0 mm 3 m/S 757 mmHg 92%
    06:00 +14°C° 0 mm 3 m/S 757 mmHg 92%
    07:00 +15°C° 0 mm 2 m/S 758 mmHg 92%
    08:00 +17°C° 0 mm 3 m/S 758 mmHg 82%
    09:00 +20°C° 0 mm 3 m/S 758 mmHg 71%
    10:00 +22°C° 0 mm 3 m/S 758 mmHg 61%
    11:00 +23°C° 0 mm 4 m/S 758 mmHg 56%
    12:00 +25°C° 0 mm 4 m/S 757 mmHg 52%
    13:00 +26°C° 0 mm 4 m/S 756 mmHg 47%
    14:00 +25°C° 0 mm 4 m/S 756 mmHg 50%
    15:00 +25°C° 0 mm 4 m/S 755 mmHg 52%
    16:00 +23°C° 0 mm 4 m/S 755 mmHg 55%
    17:00 +21°C° 0 mm 4 m/S 756 mmHg 65%
    18:00 +20°C° 0 mm 3 m/S 756 mmHg 74%
    19:00 +18°C° 0 mm 3 m/S 756 mmHg 84%
    20:00 +17°C° 0 mm 2 m/S 757 mmHg 86%
    21:00 +17°C° 0 mm 2 m/S 757 mmHg 88%
    22:00 +17°C° 0 mm 2 m/S 757 mmHg 90%
    23:00 +16°C° 0 mm 2 m/S 757 mmHg 90%

    28 Juli, Sonntag

    Zeit Temperatur Niederschläge Wind Luftdruck Luftfeuchtigkeit
    00:00 +16°C° 0 mm 3 m/S 757 mmHg 91%
    01:00 +16°C° 0 mm 3 m/S 757 mmHg 91%
    02:00 +16°C° 0 mm 3 m/S 757 mmHg 91%
    03:00 +16°C° 0 mm 3 m/S 757 mmHg 92%
    04:00 +16°C° 0 mm 2 m/S 757 mmHg 92%
    05:00 +16°C° 0 mm 2 m/S 757 mmHg 92%
    06:00 +16°C° 0 mm 2 m/S 757 mmHg 92%
    07:00 +15°C° 0 mm 2 m/S 758 mmHg 92%
    08:00 +18°C° 0 mm 2 m/S 758 mmHg 82%
    09:00 +20°C° 0 mm 2 m/S 758 mmHg 72%
    10:00 +22°C° 0 mm 3 m/S 758 mmHg 62%
    11:00 +24°C° 0 mm 3 m/S 757 mmHg 61%
    12:00 +25°C° 0 mm 4 m/S 756 mmHg 59%
    13:00 +25°C° 0 mm 4 m/S 756 mmHg 58%
    14:00 +25°C° 0 mm 5 m/S 755 mmHg 60%
    15:00 +25°C° 0 mm 5 m/S 755 mmHg 62%
    16:00 +23°C° 0 mm 5 m/S 755 mmHg 64%
    17:00 +22°C° 0.1 mm 5 m/S 755 mmHg 72%
    18:00 +21°C° 0.1 mm 5 m/S 756 mmHg 79%
    19:00 +19°C° 0.1 mm 5 m/S 756 mmHg 86%
    20:00 +19°C° 0.1 mm 5 m/S 756 mmHg 87%
    21:00 +17°C° 0.1 mm 5 m/S 757 mmHg 89%
    22:00 +18°C° 0.1 mm 4 m/S 757 mmHg 91%
    23:00 +18°C° 0.1 mm 4 m/S 757 mmHg 90%
    Mehr zeigen